Showing default

KUIPER-00279, 67795

Orbit data source: Space-Track

KUIPER-00279, 67795 is a payload satellite owned by Kuiper Systems (US) in LEO that was launched on Thu, 12 Feb 2026 UTC via an ARIANE 64 launch vehicle from the French Guiana (FRGUI). Payload-class satellites include a variety of spacecraft equipped with specific instruments for various scientific and technological missions. These include communications satellites like Starlink; space stations such as the ISS; scientific satellites like the Hubble; Earth observation satellites from companies like Planet Labs, Umbra, and HawkEye 360; GPS; miniature CubeSats for education and research; and military/defense satellites.

Loading next visibility...
Identifier
67795, 2026-030AH
Orbit
LEO
Country
Flag of USUS
Related business
Manufacturer
Kuiper Systems
Mission
Operational Commercial Communications
Bus & Motor
KUIPER, Unknown motor
Mass
~490 kg wet, ~490 kg dry
Launch date (UTC)
2026-02-12 (4 months ago)
Launch vehicle
ARIANE 64
Launch site
French Guiana (FRGUI)
Object type
Payload
Rocket body
Debris
Shape & HBR
Box + 2 Pan, 3.4 m
Radar Cross Section
2.326 m², Large (>1 m²)

Expand to show TLE details & history
Last TLE update: 13 hours ago

TLE from 13 hours ago
0 KUIPER-00279
1 67795U 26030AH  26171.41668980 -.00030964  00000-0 -20151-2 0  9999
2 67795  51.8895  85.0518 0008470  53.5242 166.2665 15.07308596  4054
Epoch: 2026-06-20T10:00Z
TLE epoch observation values (Epoch: 2026-06-20T10:00:01.998Z)
Latitude
-30.45212°
Longitude
-126.28879°
Altitude
559.305 km
Speed
7.579 km/s
True Right ascension
19h 29m 24s
True Declination
-30° 17' 52"
Sunlit
Object was in full shadow at epoch
Visualization orbit readout
Latitude
Unknown
Longitude
Unknown
Altitude
Unknown
Speed
Unknown
Apparent Right ascension
Unknown
Apparent Declination
Unknown
Sunlit
N/A
Visualization observer readout
Local Sidereal Time
10:18:46
Azimuth
Unknown
Elevation
Unknown
Doppler factor
Unknown
Orbital elements
Apogee altitude
550.75 km
Perigee altitude
539.023 km
Semi-major axis
6,923.024 km
Eccentricity
0.00085
Inclination
51.8895°
RAAN
85.0518°
Arg. of periapsis
53.5242°
True anomaly
166.28952°
Mean anomaly
166.2665°
Eccentric anomaly
166.27801°
Mean motion
3.7679 °/min
Orbital period
95.54 mins
BSTAR
-0.0020151
Loading maneuver chart data...
Computing Atmospheric mass density...
Loading historical data...
Loading historical data...
Loading historical data...
Loading historical data...
Loading historical data...
Loading historical data...
Loading historical data...

Documentation

Showing up to 5 results
|